Weather observations for the past three days for
Chicago / Wheeling, Pal-Waukee Airport
Imperial (Metric)
Date Time (cdt) Wind (mph) Vis. (mi.) Weather Sky Cond. Temperature (ºF) Relative Humidity Wind Chill (°F) Heat Index (°F) Pressure Precipitation (in)
Air Dwpt 6 hour altimeter (in) sea level (mb) 1 hr 3 hr 6 hr
Max. Min.
19 22:52 NE 3 10.00 Fair CLR 59 45 60% 30 1015.7
19 21:52 SE 3 10.00 Fair CLR 59 44.1 58% 29.99 1015.2
19 20:52 NE 3 10.00 Fair CLR 62.1 44.1 52% 29.99 1015.2
19 19:52 Calm 10.00 Fair CLR 64.9 43 45% 30 1015.5
19 18:52 NE 6 10.00 Fair CLR 66 43 73 66 43% 29.99 1015.4
19 17:52 NE 9 10.00 Fair CLR 68 41 38% 29.99 1015.1
19 16:52 E 7 10.00 Fair CLR 70 42.1 37% 30 1015.6
19 15:52 NE 9 10.00 Fair CLR 71.1 42.1 35% 30.01 1015.9
19 14:52 NE 8 10.00 Fair CLR 73 45 37% 30.04 1016.6
19 13:52 NE 12 10.00 Fair CLR 72 44.1 37% 30.02 1016.2
19 12:52 NE 10 10.00 Fair CLR 71.1 45 73.9 70 39% 30.03 1016.4
19 11:52 E 14 G 21 10.00 Fair CLR 71.1 48 44% 30.04 1016.9
19 10:52 NE 13 G 22 10.00 Fair CLR 72 48.9 44% 30.05 1017.1
19 09:52 N 13 G 22 10.00 Fair CLR 73.9 46.9 38% 30.03 1016.6
19 08:52 NE 12 G 20 10.00 Fair CLR 73.9 46.9 38% 30.03 1016.4
19 07:52 N 6 10.00 A Few Clouds FEW090 71.1 53.1 53% 30.03 1016.3
19 06:52 N 8 10.00 Fair CLR 70 54 73.9 68 57% 29.99 1015.1
19 05:52 N 8 10.00 Fair CLR 69.1 57 66% 29.96 1014.1
19 04:52 Calm 10.00 Fair CLR 71.1 59 66% 29.92 1012.7
19 03:52 W 3 10.00 Fair CLR 72 60.1 66% 29.91 1012.1
19 02:52 SW 6 10.00 Mostly Cloudy BKN065 BKN085 73 59 62% 29.89 1011.6
19 01:52 S 6 10.00 Fair CLR 71.1 59 66% 29.88 1011.3
19 00:52 SW 5 10.00 Fair CLR 73.9 57.9 82.9 69.1 57% 29.88 1011.4
18 23:52 SW 5 10.00 Fair CLR 72 57.9 61% 29.87 1011.0
18 22:52 S 5 10.00 Fair CLR 70 59 68% 29.87 1010.9
18 21:52 S 5 10.00 Fair CLR 73 57.9 59% 29.87 1010.9
18 20:52 S 6 10.00 Fair CLR 78.1 57.9 50% 79 29.85 1010.2
18 19:52 S 9 10.00 Fair CLR 81 57 44% 81 29.83 1009.7
18 18:52 SW 12 10.00 Fair CLR 82.9 57 84.9 82 41% 82 29.82 1009.5
18 17:52 S 12 10.00 Fair CLR 84 57.9 41% 83 29.82 1009.4
18 16:52 SW 13 10.00 A Few Clouds FEW070 84.9 57.9 40% 84 29.83 1009.6
18 15:52 SW 8 G 17 10.00 A Few Clouds FEW060 84.9 59 42% 85 29.83 1009.8
18 14:52 SW 9 10.00 A Few Clouds FEW060 84 60.1 44% 84 29.85 1010.3
18 13:52 W 10 10.00 A Few Clouds FEW060 84 57.9 41% 83 29.85 1010.4
18 12:52 SW 10 10.00 Fair CLR 82 59 82.9 60.1 46% 82 29.86 1010.8
18 11:52 W 7 10.00 A Few Clouds FEW050 80.1 59 49% 81 29.87 1011.2
18 10:52 S 7 10.00 Fair CLR 79 64.9 62% 81 29.87 1011.2
18 09:52 S 6 10.00 Fair CLR 75.9 64 67% 78 29.88 1011.3
18 08:52 Calm 10.00 Fair CLR 73 63 71% 29.88 1011.7
18 07:52 S 3 9.00 Fair CLR 66.9 59 76% 29.88 1011.5
18 06:52 Calm 9.00 Fair CLR 60.1 55.9 60.1 55 86% 29.87 1011.1
18 05:52 Calm 8.00 Fair CLR 55.9 54 93% 29.85 1010.7
18 04:52 Calm 9.00 Fair CLR 55.9 54 93% 29.84 1010.3
18 03:52 Calm 10.00 Fair CLR 57 54 90% 29.83 1009.7
18 02:52 Calm 10.00 Fair CLR 57.9 54 87% 29.82 1009.6
18 01:52 Calm 10.00 Fair CLR 57.9 55 90% 29.82 1009.6
18 00:52 Calm 10.00 Fair CLR 59 54 69.1 57 83% 29.83 1009.7
17 23:52 Calm 10.00 Fair CLR 59 54 83% 29.82 1009.5
17 22:52 Calm 10.00 Fair CLR 60.1 54 80% 29.82 1009.6
17 20:52 Calm 10.00 Fair CLR 63 54 73% 29.8 1008.8
17 19:52 E 6 10.00 Fair CLR 66 54 65% 29.8 1008.9
17 18:52 E 6 10.00 Fair CLR 69.1 54 75 69.1 59% 29.79 1008.5
17 17:52 E 8 10.00 Fair CLR 71.1 55 57% 29.78 1008.4
17 16:52 E 10 10.00 Fair CLR 71.1 55.9 59% 29.79 1008.4
17 15:52 NE 9 10.00 Fair CLR 72 57 59% 29.79 1008.3
17 14:52 E 10 10.00 Fair CLR 73 57.9 59% 29.79 1008.6
17 13:52 E 10 10.00 Fair CLR 73 57.9 59% 29.79 1008.3
17 12:52 E 7 10.00 A Few Clouds FEW060 75 60.1 75.9 61 60% 77 29.8 1008.6
17 11:52 NE 9 10.00 Fair CLR 73.9 59 60% 29.8 1008.7
17 10:52 Calm 10.00 Fair CLR 75.9 54 47% 78 29.8 1008.8
17 09:52 W 5 10.00 Fair CLR 73 55.9 55% 29.81 1009.1
17 08:52 Calm 10.00 Fair CLR 69.1 59 70% 29.82 1009.4
17 07:52 NW 3 9.00 Fair CLR 64.9 59 81% 29.81 1009.2
17 06:52 Calm 3.00 Fog/Mist CLR 61 59 64 55 93% 29.8 1008.7
17 05:52 Calm 3.00 Fog/Mist CLR 55.9 55.9 100% 29.77 1007.9
17 04:52 S 5 8.00 Fair CLR 57 57 100% 29.76 1007.6
17 03:52 Calm 8.00 Fair CLR 57.9 57.9 100% 29.75 1007.2
17 02:52 SW 3 10.00 Fair CLR 61 60.1 97% 29.76 1007.5
17 01:52 S 5 10.00 Fair CLR 62.1 61 96% 29.76 1007.6
17 00:52 SW 7 10.00 Fair CLR 64 61 72 64 90% 29.78 1007.9
16 23:52 SW 6 10.00 Fair CLR 64.9 61 87% 29.78 1008.2
Date Time (cdt) Wind (mph) Vis. (mi.) Weather Sky Cond. Air Dwpt Max. Min. Relative Humidity Wind Chill (°F) Heat Index (°F) altimeter (in) sea level (mb) 1 hr 3 hr 6 hr
6 hour
Temperature (ºF) Pressure Precipitation (in)